ピゴット-リニア-コワルスキー彗星

226P/Pigott-LINEAR-Kowalski (2009)

English version
Home page
Updated on March 17, 2010

---------------------------------------------------------------------

・ プロフィール

符号 226P/2009 R2
再発見日 2009年9月10日
再発見光度 18.3等
再発見者 R. A. Kowalski (Catalina)

・ 写真集

・ 軌道要素

Epoch 2009 May 9.0 TT = JDT 2454960.5
T 2009 May 11.22308 TT                                  MPC
q   1.7691249            (2000.0)            P               Q
n   0.13500853     Peri.  340.94750     +0.74470417     -0.35881004
a   3.7632400      Node    54.07108     +0.66610130     +0.34712888
e   0.5298932      Incl.   44.02350     +0.04153018     +0.86646229
P   7.30

・ 光度変化

        m1 = 7.5 + 5 logΔ + 30 log r(t - 75)

---------------------------------------------------------------------

軌道要素はM.P.E.C. 2009-R40に掲載されたものです。
光度グラフはComet for Windowsで作成したものです。

---------------------------------------------------------------------

Copyright(C) Seiichi Yoshida (comet@aerith.net). All rights reserved.